#timestamp,LO_Frequency,Hit,StdDev 
1511251215.1,286047000.5,N
1511251235.9,286047002.0,N
1511251255.7,286047000.9,N
1511251275.5,286046996.5,N
1511251295.4,286046997.2,N
1511251315.2,286046997.7,N
1511251335.1,286046996.8,N
1511251336.0,286046996.8,N
1511251355.8,286047000.7,N
1511251375.6,286047001.0,N
1511251395.5,286046998.3,N
1511251415.3,286046999.3,N
1511251435.1,286046998.7,N
1511251455.9,286046998.5,N
1511251475.7,286047000.4,N
1511251495.6,286047000.3,N
1511251515.4,286047002.5,N
1511251535.2,286047005.5,Y
1511251555.1,286047005.7,P
1511251556.0,286047005.7,N
1511251575.8,286047005.9,N
1511251595.7,286047003.7,N
1511251615.5,286047003.1,N
1511251635.3,286047005.5,N
1511251655.2,286047005.9,N
1511251675.0,286047005.7,N
1511251675.9,286047005.7,N
1511251695.7,286047007.1,Y
1511251715.6,286047001.0,P
1511251735.4,286047000.8,N
1511251755.3,286046998.1,N
1511251775.1,286046998.1,N
1511251776.0,286046998.1,N
1511251795.8,286047000.9,N
1511251815.7,286047001.1,N
1511251835.5,286046998.3,N
1511251855.3,286047000.4,N
1511251875.2,286046998.9,N
1511251895.0,286046999.2,N
1511251895.9,286046999.2,N
1511251915.8,286046996.5,N
1511251935.6,286046998.9,N
1511251955.4,286046997.4,N
1511251975.3,286046995.0,N
1511251995.1,286046996.2,N
1511252015.9,286046997.6,N
1511252035.7,286046997.7,N
1511252055.5,286046997.1,N
1511252075.4,286046996.8,N
1511252095.2,286046997.5,N
1511252115.0,286046995.0,N
1511252115.9,286046995.0,N
1511252165.8,286046995.1,E
1511252175.7,286046999.5,N
1511252195.6,286047002.1,P
1511252215.4,286047001.7,N
1511252235.3,286047003.3,N
1511252255.1,286046999.8,N
1511252256.0,286046999.8,N
1511252275.8,286047002.4,N
1511252295.7,286047002.2,N
1511252315.5,286047002.8,N
1511252335.3,286046999.7,N
1511252355.2,286047000.2,N
1511252375.0,286047000.5,N
1511252375.9,286047000.5,N
1511252395.8,286047001.1,N
1511252415.6,286047000.0,N
1511252435.4,286046998.6,N
1511252455.3,286046998.6,N
1511252475.1,286047000.4,N
1511252495.8,286047000.8,N
1511252515.7,286046998.7,N
1511252535.5,286046999.1,N
1511252555.4,286046999.0,N
1511252575.2,286046999.4,N
1511252595.0,286046999.1,N
1511252595.9,286046999.1,N
1511252615.8,286046999.2,N
1511252635.6,286046999.2,N
1511252655.4,286046998.1,N
1511252675.3,286047000.0,N
1511252695.1,286047000.6,N
1511252715.9,286046998.5,N
1511252735.7,286046998.5,N
1511252755.5,286046999.3,N
1511252775.4,286046999.1,N
1511252795.2,286047001.0,N
1511252815.0,286047000.2,N
1511252815.9,286047000.2,N
1511252835.8,286047000.6,N
1511252855.6,286047000.9,N
1511252875.5,286047000.0,N
1511252895.3,286047000.9,N
1511252915.1,286046997.1,Y
1511252935.9,286046996.7,P
1511252955.7,286046997.1,N
1511252975.6,286046996.6,N
1511252995.4,286046997.4,N
1511253015.2,286046996.6,Y
1511253035.1,286046999.7,P
1511253036.0,286046999.7,N
1511253055.8,286047002.3,N
1511253075.6,286047002.0,N
1511253095.5,286047001.3,N
1511253115.3,286047002.8,N
1511253135.2,286047002.6,N
1511253155.9,286047000.4,N
1511253175.7,286047002.7,N
1511253195.6,286046999.8,N
1511253215.4,286047000.1,N
1511253235.3,286047001.0,N
1511253255.1,286046999.7,N
1511253256.0,286046999.7,N
1511253275.8,286047002.7,N
1511253295.7,286047001.0,N
1511253315.5,286047002.8,N
1511253335.3,286047000.9,N
1511253355.2,286047002.8,N
1511253375.0,286047001.6,N
1511253375.9,286047001.6,N
1511253395.8,286047002.3,N
1511253415.6,286046998.7,N
1511253435.4,286047001.0,N
1511253455.3,286047000.3,N
1511253475.1,286047000.5,N
1511253495.9,286047000.3,N
1511253515.7,286046999.7,N
1511253535.5,286046999.9,N
1511253555.4,286047001.0,N
1511253575.2,286046998.9,N
1511253595.0,286047001.0,N
1511253595.9,286047001.0,N
1511253615.8,286047000.1,N
1511253635.6,286046999.9,N
1511253655.5,286047002.3,N
1511253675.3,286047002.0,N
1511253695.1,286047001.4,N
1511253715.9,286047003.2,N
1511253735.7,286047003.7,Y
1511253755.5,286047001.8,P
1511253775.4,286047002.3,P
1511253795.2,286047002.8,P
1511253815.1,286047000.0,N
1511253816.0,286047000.0,N
1511253835.8,286047001.8,N
1511253855.6,286047001.8,N
1511253875.5,286047002.8,N
1511253895.3,286047000.8,N
1511253915.1,286046998.2,N
1511253935.9,286046998.7,N
1511253955.7,286047000.4,N
1511253975.6,286046997.7,N
1511253995.4,286046998.6,N
1511254015.2,286047000.2,N
1511254035.1,286047000.4,N
1511254036.0,286047000.4,N
1511254055.8,286046999.8,N
1511254075.7,286046999.9,N
1511254095.5,286047000.9,N
1511254115.3,286046998.2,N
1511254135.2,286046998.1,N
1511254155.0,286047000.3,N
1511254155.9,286047000.3,N
1511254175.7,286046998.6,N
1511254195.6,286046999.0,N
1511254215.4,286046996.7,N
1511254235.3,286046997.2,N
1511254255.1,286046999.2,N
1511254275.8,286046999.5,N
1511254295.7,286046997.6,N
1511254315.5,286046997.1,N
1511254335.4,286046997.3,N
1511254355.2,286046997.9,N
1511254375.0,286046997.1,N
1511254375.9,286046997.1,N
1511254395.8,286046997.6,N
1511254415.6,286046997.3,N
1511254435.5,286046996.8,N
1511254455.3,286046999.2,N
1511254475.1,286046999.2,N
1511254495.9,286046997.0,N
1511254515.7,286046997.3,N
1511254535.6,286046997.7,N
1511254555.4,286046999.1,N
1511254575.2,286046998.1,N
1511254595.1,286047001.2,N
1511254596.0,286047001.2,N
1511254615.8,286046998.2,N
1511254635.7,286046997.8,N
1511254655.5,286046998.2,N
1511254675.3,286046998.7,N
1511254695.2,286046997.9,N
1511254715.0,286046997.1,N
1511254715.9,286046997.1,N
1511254735.7,286046998.3,N
1511254755.6,286047001.2,N
1511254775.4,286047000.8,N
1511254795.3,286046998.5,N
